Location: ??? ???
(33.4974°N, 35.4618°E)
Time: 12:24:24
(UTC+00:00)

Cosmos 1689 Rocket - Pass Details

Date: 29 October 2020
Orbit: 360 x 375 km, 97.5° (Epoch: 27 November)

Event Time Altitude Azimuth Distance (km) Brightness Sun altitude
Rises 15:16:28 0° 22° (NNE) 2,197 5.6 -6.4°
Reaches altitude 10° 15:18:31 10° 33° (NNE) 1,346 4.4 -6.9°
Maximum altitude 15:21:07 32° 99° (E) 653 2.7 -7.4°
Drops below altitude 10° 15:23:43 10° 165° (SSE) 1,337 4.8 -7.9°
Sets 15:25:45 0° 175° (S) 2,180 6.0 -8.3°
